Starlink 30295

operational
NORAD ID: 57683 Int'l Des: 2023-124 Owner: SPXS Country: US Constellation: starlink
LEOCIRCULAR

关于 Starlink 30295

正在加载描述...

实时位置

正在加载3D地球...

即将过境

高度历史

Altitude vs Time

uPlot chart will show altitude changes over time

两行轨道根数

1 57683U 23124W 26036.29349642 .00001882 00000-0 75658-4 0 9991
2 57683 53.1628 357.5465 0001225 85.2092 274.9048 15.30196456138609
Epoch: Feb 5, 2026 • Age: 6 hours

当前状态

高度 478.4 km
速度 7.63 km/s
星下点 -10.90°S, 139.78°W
发射日期 Aug 22, 2023
运行时间 2.4 years
类型 internet

技术详情

分类 Payload
质量 730.00 kg
干质量 700.00 kg
总质量 730.00 kg
长度 0.30 m
直径 4.10 m
跨度 29.00 m
形状 Box + pan
制造商 SPXS
平台类型 Starlink V2M
阶段状态 In Orbit
所有者/国家 SPXS/US

大型星座

Loading constellations...